Cloud_Cover
0 8 0 0 0 0 0 0 11 56 99 17 98 1 0 0 0 0 0 0 0 3 5 30 5 99 100 63 5 2 5 2 30 5 93 100 97 56 97 23 77 81 100
0 0 0 0 0 0 0 0 92 94 54 97 6 5 5 5 4 5 0 0 0 5 47 36 67 100 54 5 5 100 100 100 52 5 38 99 100 100 100 98 94 100 99
0 0 0 0 0 0 0 0 4 5 3 5 5 5 5 4 4 5 0 1 0 6 80 100 100 94 75 90 100 99 100 83 53 64 100 100 100 99 100 100 100 100 100
0 0 0 0 0 0 0 0 40 5 57 79 37 100 50 22 5 5 5 5 5 28 100 100 100 84 100 80 100 100 100 70 36 98 100 46 100 85 100 100 100 100 100
0 0 0 0 0 0 0 0 0 80 14 97 22 5 96 42 89 24 80 21 8 45 100 100 65 97 100 100 100 100 92 12 89 100 100 91 100 100 100 100 100 100 100
0 0 0 0 3 0 0 0 0 41 100 31 97 29 99 97 100 84 100 38 5 83 99 100 5 36 29 88 98 100 100 100 97 98 99 100 100 100 100 100 100 100 100
0 2 100 84 11 99 16 0 2 56 81 100 100 100 100 100 100 100 89 96 7 30 99 64 57 100 100 62 95 100 100 100 100 100 100 100 100 100 100 100 100 100 100
0 5 2 55 100 100 100 5 2 63 100 100 100 100 100 100 100 100 100 90 87 8 99 99 100 100 100 71 100 100 100 100 97 100 100 100 100 100 100 100 84 93 73
0 0 91 100 99 30 64 25 96 100 100 100 100 100 100 100 100 100 99 96 87 36 18 100 100 100 100 91 100 100 100 100 68 91 84 100 100 76 25 46 100 100 62
0 4 4 100 100 100 70 100 100 100 100 97 100 100 100 100 100 100 100 100 98 98 53 100 100 100 100 100 100 100 100 86 18 4 5 70 98 7 22 87 100 100 95
0 99 100 100 100 100 100 100 100 100 98 80 100 15 100 100 100 100 100 100 61 100 56 98 100 100 100 100 100 100 54 12 5 49 5 5 18 34 97 100 100 90 100
1 7 100 100 100 100 100 100 100 100 92 100 100 82 100 99 100 100 100 66 28 45 100 100 100 100 100 100 100 100 45 62 26 16 11 14 63 99 92 97 81 76 80
88 33 100 100 100 100 100 100 100 100 100 100 100 100 100 100 100 100 98 41 51 100 100 100 100 100 100 100 100 100 80 99 96 89 86 97 99 100 100 30 54 100 99
3 3 100 100 100 100 100 100 100 100 100 100 100 100 100 100 100 100 100 68 53 63 95 100 100 100 100 100 89 68 25 61 100 97 83 100 94 100 96 100 78 97 100
0 17 29 100 100 100 100 100 100 100 100 100 100 100 100 100 100 100 100 32 8 23 73 100 100 100 100 92 99 64 75 90 98 100 99 84 100 100 100 100 100 51 22
0 38 67 37 100 100 100 100 100 100 100 100 100 100 100 100 100 100 48 62 16 56 99 97 100 100 100 77 100 96 43 100 91 100 100 100 100 100 100 100 100 85 100
0 0 7 19 100 100 100 100 100 100 100 100 100 100 100 100 100 100 94 100 69 93 98 96 100 100 99 96 96 92 34 93 52 55 99 100 100 79 100 98 93 89 96
0 2 2 8 50 100 100 100 100 100 100 100 100 100 100 100 100 100 100 100 100 100 100 100 100 100 99 100 97 98 83 62 91 66 96 100 100 100 22 84 100 82 82
0 13 14 81 50 98 100 100 100 100 100 100 100 100 100 100 100 100 100 100 100 100 100 100 100 100 90 94 94 99 98 100 72 100 100 100 100 97 69 75 100 18 58
0 0 4 48 40 100 100 100 100 100 100 100 100 100 100 100 100 100 100 100 100 100 100 100 100 100 96 97 100 50 74 97 100 100 97 100 99 65 22 80 80 49 19
0 6 19 59 100 97 100 100 100 100 100 100 100 100 100 100 100 100 100 100 100 100 100 100 100 100 100 100 100 99 94 100 100 100 100 96 77 94 48 10 81 100 20
0 100 73 79 100 93 100 100 100 100 100 100 100 100 100 100 100 100 100 100 100 100 100 100 100 100 100 98 71 100 100 100 97 97 98 100 93 40 6 100 100 99 40
0 100 100 48 1 99 100 100 100 100 100 100 100 100 100 100 100 100 100 100 100 100 100 100 100 95 98 100 100 100 100 100 100 96 100 78 100 100 100 100 100 54 10
19 100 100 92 40 66 63 100 100 100 100 100 100 100 100 100 100 100 100 100 100 100 100 100 100 100 100 100 100 100 100 100 96 98 100 100 100 100 100 100 100 100 100
19 100 100 75 100 100 14 100 100 100 100 100 100 100 100 100 100 100 100 100 100 100 100 100 100 100 100 100 100 100 100 100 95 100 100 100 100 100 100 97 100 100 100
0 100 100 100 100 100 100 89 100 100 100 100 100 100 100 100 100 100 100 100 100 100 100 100 100 100 100 100 100 100 99 90 96 100 100 100 100 100 100 100 100 100 100